Latest Coastal Weather Observations for Willis Island

IDQ60701

Issued at 3:25 pm EST Wednesday 26 November 2014 (issued every 10 minutes, with the page automatically refreshed every 10 minutes)

About coastal observations | Map of coastal stations | Coastal observations for QLD | Marine services | Other Formats
Station Details ID: 200283 Name: WILLIS ISLAND Lat: -16.29 Lon: 149.97 Height: 9.29 m
Data from the previous 72 hours. | See also: Recent months at Willis Island
Date/Time
EST
Temp

°C
Wind Pressure Rain
since 9am
mm
Weather Cloud Vis
km
Sea
Height
m
Swell
Dir
 
Speed
knots
Gust
knots
hPa Trend Height
m
Period
s
Dir
26/03:00pm 28.7 E 18 22 1009.7 R 0.0 Fine Partly cloudy 30 2 1.5 4 SE
26/02:30pm 28.6 E 19 21 1009.7 - 0.0 - - - - - - -
26/02:00pm 28.5 E 17 20 1009.9 - 0.0 - - - - - - -
26/01:30pm 28.9 E 19 21 1010.1 - 0.0 - - - - - - -
26/01:00pm 29.0 E 20 23 1010.3 - 0.0 - - - - - - -
26/12:30pm 28.9 E 19 22 1010.7 - 0.0 - - - - - - -
26/12:00pm 29.6 E 20 23 1011.0 R 0.0 Fine Mostly clear 30 2 1.8 10 SE
26/11:30am 29.3 E 19 22 1011.4 - 0.0 - - - - - - -
26/11:00am 28.8 E 19 22 1011.7 - 0.0 - - - - - - -
26/10:30am 29.2 E 18 21 1011.7 - 0.0 - - - - - - -
26/10:00am 28.9 E 19 22 1011.6 - 0.0 - - - - - - -
26/09:30am 29.0 E 18 22 1011.6 - 0.0 - - - - - - -
26/09:00am 29.4 E 16 19 1011.5 F 0.0 Distant precip. Mostly clear 30 1 1.2 9 E
26/08:30am 28.4 E 16 19 1011.5 - 0.0 - - - - - - -
26/08:00am 28.4 E 17 19 1011.3 - 0.0 - - - - - - -
26/07:30am 27.9 E 16 18 1011.2 - 0.0 - - - - - - -
26/07:00am 27.3 E 16 18 1011.0 - 0.0 - - - - - - -
26/06:30am 27.0 E 15 17 1010.9 - 0.0 - - - - - - -
26/06:00am 26.8 E 15 17 1010.6 - 0.0 - - - - - - -
26/05:30am 26.5 E 15 17 1010.1 - 0.0 - - - - - - -
26/05:00am 26.4 E 15 18 1009.9 - 0.0 - - - - - - -
26/04:30am 26.4 E 15 17 1009.7 - 0.0 - - - - - - -
26/04:00am 26.4 E 15 16 1009.5 - 0.0 - - - - - - -
26/03:30am 26.4 E 13 15 1009.4 - 0.0 - - - - - - -
26/03:00am 26.4 E 13 15 1009.4 - 0.0 - - - - - - -
26/02:30am 26.5 E 13 14 1009.4 - 0.0 - - - - - - -
26/02:00am 26.5 E 14 16 1009.4 - 0.0 - - - - - - -
26/01:30am 26.5 E 15 17 1009.6 - 0.0 - - - - - - -
26/01:00am 26.7 E 14 17 1010.0 - 0.0 - - - - - - -
26/12:30am 26.7 E 13 15 1010.5 - 0.0 - - - - - - -
26/12:00am 26.7 E 13 15 1011.0 - 0.0 - - - - - - -
 
Date/Time
EST
Temp

°C
Wind Pressure Rain
since 9am
mm
Weather Cloud Vis
km
Sea
Height
m
Swell
Dir
 
Speed
knots
Gust
knots
hPa Trend Height
m
Period
s
Dir
25/11:30pm 26.8 E 15 18 1011.3 - 0.0 - - - - - - -
25/11:00pm 26.9 E 15 17 1011.5 - 0.0 - - - - - - -
25/10:30pm 27.0 E 14 16 1011.8 - 0.0 - - - - - - -
25/10:00pm 27.0 E 14 16 1011.8 - 0.0 - - - - - - -
25/09:30pm 26.9 E 15 16 1011.5 - 0.0 - - - - - - -
25/09:00pm 26.9 E 15 17 1011.2 - 0.0 - - - - - - -
25/08:30pm 26.9 E 16 18 1010.9 - 0.0 - - - - - - -
25/08:00pm 27.0 E 16 18 1010.9 - 0.0 - - - - - - -
25/07:30pm 27.0 ESE 16 18 1010.8 - 0.0 - - - - - - -
25/07:00pm 27.0 E 15 17 1010.6 - 0.0 - - - - - - -
25/06:30pm 27.2 ESE 15 17 1010.4 - 0.0 - - - - - - -
25/06:00pm 27.4 E 12 16 1010.1 R 0.0 Haze Mostly cloudy 10 1 0.8 6 SE
25/05:30pm 27.8 E 13 14 1009.8 - 0.0 - - - - - - -
25/05:00pm 28.0 E 13 16 1009.4 - 0.0 - - - - - - -
25/04:30pm 27.9 E 13 14 1009.2 - 0.0 - - - - - - -
25/04:00pm 28.1 E 12 14 1009.3 - 0.0 - - - - - - -
25/03:30pm 28.7 E 13 15 1009.2 - 0.0 - - - - - - -
25/03:00pm 29.5 E 12 14 1009.1 S 0.0 Haze Partly cloudy 25 1 1.0 6 SE
25/02:30pm 29.3 E 13 15 1009.2 - 0.0 - - - - - - -
25/02:00pm 29.3 E 13 15 1009.5 - 0.0 - - - - - - -
25/01:30pm 29.5 E 12 14 1009.6 - 0.0 - - - - - - -
25/01:00pm 29.4 E 13 14 1009.9 - 0.0 - - - - - - -
25/12:30pm 29.0 ESE 15 16 1010.3 - 0.0 - - - - - - -
25/12:00pm 28.8 E 16 18 1010.6 F 0.0 Fine Partly cloudy 30 1 1.2 9 SE
25/11:30am 29.7 ESE 15 19 1010.8 - 0.0 - - - - - - -
25/11:00am 28.2 ESE 15 17 1011.0 - 0.0 - - - - - - -
25/10:30am 28.7 ESE 15 17 1011.2 - 0.0 - - - - - - -
25/10:00am 28.0 ESE 16 19 1011.4 - 0.0 - - - - - - -
25/09:30am 28.1 ESE 17 19 1011.6 - 0.0 - - - - - - -
25/09:00am 29.3 ESE 15 19 1011.9 F 0.0 Fine Mostly cloudy 30 1 1.2 9 SE
25/08:30am 27.5 ESE 15 17 1012.0 - 0.0 - - - - - - -
25/08:00am 27.2 ESE 17 20 1011.9 - 0.0 - - - - - - -
25/07:30am 27.2 ESE 16 19 1011.8 - 0.0 - - - - - - -
25/07:00am 27.3 ESE 15 18 1011.7 - 0.0 - - - - - - -
25/06:30am 26.8 ESE 14 16 1011.7 - 0.0 - - - - - - -
25/06:00am 26.7 ESE 15 17 1011.3 - 0.0 - - - - - - -
25/05:30am 26.6 ESE 15 17 1011.1 - 0.0 - - - - - - -
25/05:00am 26.6 ESE 15 18 1010.8 - 0.0 - - - - - - -
25/04:30am 26.5 ESE 16 19 1010.6 - 0.0 - - - - - - -
25/04:00am 26.6 ESE 16 17 1010.4 - 0.0 - - - - - - -
25/03:30am 26.4 SE 15 17 1010.3 - 0.0 - - - - - - -
25/03:00am 26.6 SE 15 17 1010.2 - 0.0 - - - - - - -
25/02:30am 26.5 ESE 15 17 1010.3 - 0.0 - - - - - - -
25/02:00am 26.5 ESE 15 18 1010.5 - 0.0 - - - - - - -
25/01:30am 26.5 ESE 15 17 1010.7 - 0.0 - - - - - - -
25/01:00am 26.5 ESE 15 18 1010.9 - 0.0 - - - - - - -
25/12:30am 26.5 ESE 16 19 1011.2 - 0.0 - - - - - - -
25/12:00am 26.5 ESE 16 19 1011.4 - 0.0 - - - - - - -
 
Date/Time
EST
Temp

°C
Wind Pressure Rain
since 9am
mm
Weather Cloud Vis
km
Sea
Height
m
Swell
Dir
 
Speed
knots
Gust
knots
hPa Trend Height
m
Period
s
Dir
24/11:30pm 26.4 ESE 15 18 1012.0 - 0.0 - - - - - - -
24/11:00pm 26.9 ESE 15 18 1012.4 - 0.0 - - - - - - -
24/10:30pm 26.8 ESE 17 19 1012.5 - 0.0 - - - - - - -
24/10:00pm 26.8 ESE 16 19 1012.6 - 0.0 - - - - - - -
24/09:30pm 26.8 ESE 16 19 1012.4 - 0.0 - - - - - - -
24/09:00pm 26.8 ESE 15 18 1012.3 - 0.0 - - - - - - -
24/08:30pm 27.0 ESE 15 18 1012.0 - 0.0 - - - - - - -
24/08:00pm 26.8 E 16 19 1011.6 - 0.0 - - - - - - -
24/07:30pm 26.8 ESE 17 19 1011.4 - 0.0 - - - - - - -
24/07:00pm 26.9 ESE 15 17 1011.1 - 0.0 - - - - - - -
24/06:30pm 27.1 E 17 19 1010.9 - 0.0 - - - - - - -
24/06:00pm 27.1 E 17 19 1010.6 F 0.0 Fine Mostly clear 30 1 1.0 8 SE
24/05:30pm 27.3 E 16 19 1010.4 - 0.0 - - - - - - -
24/05:00pm 27.5 ESE 17 19 1010.4 - 0.0 - - - - - - -
24/04:30pm 28.0 E 17 19 1010.1 - 0.0 - - - - - - -
24/04:00pm 28.3 E 17 20 1010.2 - 0.0 - - - - - - -
24/03:30pm 28.7 ESE 16 19 1010.2 - 0.0 - - - - - - -
24/03:00pm 28.9 E 17 20 1010.4 F 0.0 Fine Mostly clear 30 1 1.0 8 SE
24/02:30pm 28.8 E 19 21 1010.6 - 0.0 - - - - - - -
24/02:00pm 29.2 E 18 21 1010.7 - 0.0 - - - - - - -
24/01:30pm 29.0 E 18 22 1010.9 - 0.0 - - - - - - -
24/01:00pm 29.1 E 19 21 1011.3 - 0.0 - - - - - - -
24/12:30pm 29.1 E 19 21 1011.7 - 0.0 - - - - - - -
24/12:00pm 29.2 E 18 21 1012.0 R 0.0 Fine Partly cloudy 30 1 1.2 8 SE
24/11:30am 29.1 E 19 22 1012.4 - 0.0 - - - - - - -
24/11:00am 29.1 E 20 23 1012.6 - 0.0 - - - - - - -
24/10:30am 28.8 E 18 22 1012.6 - 0.0 - - - - - - -
24/10:00am 28.8 E 19 23 1012.9 - 0.0 - - - - - - -
24/09:30am 28.8 ESE 19 22 1013.0 - 0.0 - - - - - - -
24/09:00am 28.9 ESE 18 21 1013.1 F 0.0 Fine Partly cloudy 30 1 1.0 7 SE
24/08:30am 28.0 E 18 21 1013.2 - 0.0 - - - - - - -
24/08:00am 27.5 E 19 21 1012.9 - 0.0 - - - - - - -
24/07:30am 28.0 E 18 22 1012.7 - 0.0 - - - - - - -
24/07:00am 27.1 E 18 21 1012.6 - 0.0 - - - - - - -
24/06:30am 27.1 E 18 21 1012.5 - 0.0 - - - - - - -
24/06:00am 26.7 E 17 19 1012.3 - 0.0 - - - - - - -
24/05:30am 26.5 E 17 19 1012.1 - 0.0 - - - - - - -
24/05:00am 26.3 E 19 21 1011.7 - 0.0 - - - - - - -
24/04:30am 26.4 E 18 21 1011.8 - 0.0 - - - - - - -
24/04:00am 26.4 E 18 21 1011.7 - 0.0 - - - - - - -
24/03:30am 26.3 E 17 19 1011.7 - 0.0 - - - - - - -
24/03:00am 26.4 E 17 20 1011.5 - 0.0 - - - - - - -
24/02:30am 26.2 ESE 14 15 1011.8 - 0.0 - - - - - - -
24/02:00am 26.7 E 15 17 1012.0 - 0.0 - - - - - - -
24/01:30am 26.4 E 16 18 1012.2 - 0.0 - - - - - - -
24/01:00am 26.5 E 14 16 1012.5 - 0.0 - - - - - - -
24/12:30am 26.7 E 14 16 1012.8 - 0.0 - - - - - - -
24/12:00am 26.7 E 16 18 1013.2 - 0.0 - - - - - - -
 
Date/Time
EST
Temp

°C
Wind Pressure Rain
since 9am
mm
Weather Cloud Vis
km
Sea
Height
m
Swell
Dir
 
Speed
knots
Gust
knots
hPa Trend Height
m
Period
s
Dir
23/11:30pm 26.8 E 15 17 1013.4 - 0.0 - - - - - - -
23/11:00pm 26.7 E 16 19 1013.7 - 0.0 - - - - - - -
23/10:30pm 26.9 E 16 17 1013.9 - 0.0 - - - - - - -
23/10:00pm 26.9 E 17 19 1013.9 - 0.0 - - - - - - -
23/09:30pm 26.9 E 18 20 1013.8 - 0.0 - - - - - - -
23/09:00pm 26.8 E 16 18 1013.4 - 0.0 - - - - - - -
23/08:30pm 26.9 E 16 18 1013.2 - 0.0 - - - - - - -
23/08:00pm 26.9 E 16 18 1013.0 - 0.0 - - - - - - -
23/07:30pm 27.0 E 14 16 1012.8 - 0.0 - - - - - - -
23/07:00pm 26.8 E 15 17 1012.6 - 0.0 - - - - - - -
23/06:30pm 27.1 E 15 17 1012.3 - 0.0 - - - - - - -
23/06:00pm 27.0 E 13 15 1012.1 F 0.0 Distant precip. Mostly clear 30 1 1.0 7 SE
23/05:30pm 27.8 ESE 13 16 1012.0 - 0.0 - - - - - - -
23/05:00pm 28.1 ESE 12 14 1011.9 - 0.0 - - - - - - -
23/04:30pm 28.6 ESE 12 14 1011.8 - 0.0 - - - - - - -
23/04:00pm 28.7 ESE 13 15 1011.6 - 0.0 - - - - - - -
23/03:30pm 29.1 ESE 12 15 1011.6 - 0.0 - - - - - - -

Other Formats:

Comma delimited format used in spreadsheet applications
http://www.bom.gov.au/fwo/IDQ60701/IDQ60701.94299.axf

JavaScript Object Notation format (JSON) in row-major order
http://www.bom.gov.au/fwo/IDQ60701/IDQ60701.94299.json